INMARSAT GX5

Last updated on Sun Apr 12 2026 00:02:55 GMT+0000 (Coordinated Universal Time)

1 44801U 19080B 26101.30898948 .00000076 00000+0 00000+0 0 9995 2 44801 0.0460 22.8725 0002049 357.6328 301.2836 1.00270581 6119
UTC large
Height (km)
Speed (km/s)
/
Latitude / Longitude
Inclination (degrees)
Orbital Period (minutes)
Azimuth
Elevation
Range (km)
Doppler Factor

Next 0 passes for location: London (51.5072 / 0.1276)

Sorry there are no passes over London.
INMARSAT GX5